Time,TemperatureF,DewpointF,PressureIn,WindDirection,WindDirectionDegrees,WindSpeedMPH,WindSpeedGustMPH,Humidity,HourlyPrecipIn,Conditions,Clouds,dailyrainin,SoftwareType,DateUTC
2013-04-26 00:11:00,47.8,35.0,30.15,ENE,67,5.3,-999.0,61,-99.99,,,0.00,Acu-Link.com,2013-04-26 04:11:00,
2013-04-26 00:26:00,46.9,35.4,30.16,East,90,1.7,-999.0,64,-99.99,,,0.00,Acu-Link.com,2013-04-26 04:26:00,
2013-04-26 00:41:00,46.6,35.5,30.16,NE,45,3.7,-999.0,65,-99.99,,,0.00,Acu-Link.com,2013-04-26 04:41:00,
2013-04-26 00:56:00,46.0,35.7,30.17,SSE,157,0.0,-999.0,67,-99.99,,,0.00,Acu-Link.com,2013-04-26 04:56:00,
2013-04-26 01:11:00,45.9,35.2,30.17,ESE,112,0.0,-999.0,66,-99.99,,,0.00,Acu-Link.com,2013-04-26 05:11:00,
2013-04-26 01:26:00,45.7,35.4,30.16,West,270,0.0,-999.0,67,-99.99,,,0.00,Acu-Link.com,2013-04-26 05:26:00,
2013-04-26 01:41:00,45.5,34.8,30.17,West,270,0.0,-999.0,66,-99.99,,,0.00,Acu-Link.com,2013-04-26 05:41:00,
2013-04-26 01:56:00,45.5,34.0,30.17,NE,45,3.2,-999.0,64,-99.99,,,0.00,Acu-Link.com,2013-04-26 05:56:00,
2013-04-26 02:11:00,45.1,33.7,30.18,West,270,5.3,-999.0,64,-99.99,,,0.00,Acu-Link.com,2013-04-26 06:11:00,
2013-04-26 02:27:00,44.8,34.1,30.18,West,270,4.7,-999.0,66,-99.99,,,0.00,Acu-Link.com,2013-04-26 06:27:00,
2013-04-26 02:42:00,44.8,34.1,30.18,West,270,4.7,-999.0,66,-99.99,,,0.00,Acu-Link.com,2013-04-26 06:42:00,
2013-04-26 02:57:00,44.1,33.9,30.18,ENE,67,4.2,-999.0,67,-99.99,,,0.00,Acu-Link.com,2013-04-26 06:57:00,
2013-04-26 03:12:00,43.2,33.4,30.18,ENE,67,3.2,-999.0,68,-99.99,,,0.00,Acu-Link.com,2013-04-26 07:12:00,
2013-04-26 03:27:00,41.7,32.6,30.19,ENE,67,0.0,-999.0,70,-99.99,,,0.00,Acu-Link.com,2013-04-26 07:27:00,
2013-04-26 03:42:00,40.6,32.3,30.20,NE,45,0.0,-999.0,72,-99.99,,,0.00,Acu-Link.com,2013-04-26 07:42:00,
2013-04-26 03:57:00,40.1,32.2,30.20,NE,45,0.0,-999.0,73,-99.99,,,0.00,Acu-Link.com,2013-04-26 07:57:00,
2013-04-26 04:12:00,39.6,32.0,30.21,SSE,157,0.0,-999.0,74,-99.99,,,0.00,Acu-Link.com,2013-04-26 08:12:00,
2013-04-26 04:27:00,39.0,31.8,30.22,ESE,112,2.2,-999.0,75,-99.99,,,0.00,Acu-Link.com,2013-04-26 08:27:00,
2013-04-26 04:43:00,38.1,31.2,30.23,NE,45,0.0,-999.0,76,-99.99,,,0.00,Acu-Link.com,2013-04-26 08:43:00,
2013-04-26 04:58:00,37.2,31.6,30.23,East,90,1.1,-999.0,80,-99.99,,,0.00,Acu-Link.com,2013-04-26 08:58:00,
2013-04-26 05:13:00,36.5,31.2,30.24,NE,45,0.0,-999.0,81,-99.99,,,0.00,Acu-Link.com,2013-04-26 09:13:00,
2013-04-26 05:28:00,36.1,31.4,30.24,NNE,22,1.7,-999.0,83,-99.99,,,0.00,Acu-Link.com,2013-04-26 09:28:00,
2013-04-26 05:43:00,35.6,31.5,30.25,NE,45,0.0,-999.0,85,-99.99,,,0.00,Acu-Link.com,2013-04-26 09:43:00,
2013-04-26 05:58:00,35.4,31.6,30.26,NNE,22,0.0,-999.0,86,-99.99,,,0.00,Acu-Link.com,2013-04-26 09:58:00,
2013-04-26 06:13:00,34.9,31.4,30.26,NE,45,0.0,-999.0,87,-99.99,,,0.00,Acu-Link.com,2013-04-26 10:13:00,
2013-04-26 06:28:00,34.7,31.5,30.27,ESE,112,1.1,-999.0,88,-99.99,,,0.00,Acu-Link.com,2013-04-26 10:28:00,
2013-04-26 06:43:00,35.2,32.0,30.28,NE,45,0.0,-999.0,88,-99.99,,,0.00,Acu-Link.com,2013-04-26 10:43:00,
2013-04-26 06:59:00,35.2,32.3,30.29,ENE,67,2.2,-999.0,89,-99.99,,,0.00,Acu-Link.com,2013-04-26 10:59:00,
2013-04-26 07:14:00,36.3,32.8,30.29,WNW,292,2.7,-999.0,87,-99.99,,,0.00,Acu-Link.com,2013-04-26 11:14:00,
2013-04-26 07:29:00,37.8,33.4,30.29,West,270,2.2,-999.0,84,-99.99,,,0.00,Acu-Link.com,2013-04-26 11:29:00,
2013-04-26 07:44:00,39.4,33.4,30.30,WNW,292,3.7,-999.0,79,-99.99,,,0.00,Acu-Link.com,2013-04-26 11:44:00,
2013-04-26 07:59:00,40.1,33.5,30.30,West,270,3.2,-999.0,77,-99.99,,,0.00,Acu-Link.com,2013-04-26 11:59:00,
2013-04-26 08:14:00,41.4,33.4,30.30,South,180,3.7,-999.0,73,-99.99,,,0.00,Acu-Link.com,2013-04-26 12:14:00,
2013-04-26 08:29:00,42.4,33.3,30.29,West,270,2.7,-999.0,70,-99.99,,,0.00,Acu-Link.com,2013-04-26 12:29:00,
2013-04-26 08:44:00,45.1,34.0,30.27,East,90,2.7,-999.0,65,-99.99,,,0.00,Acu-Link.com,2013-04-26 12:44:00,
2013-04-26 08:59:00,45.3,33.5,30.29,West,270,2.2,-999.0,63,-99.99,,,0.00,Acu-Link.com,2013-04-26 12:59:00,
2013-04-26 09:15:00,46.6,32.6,30.31,WSW,247,4.2,-999.0,58,-99.99,,,0.00,Acu-Link.com,2013-04-26 13:15:00,
2013-04-26 09:30:00,48.2,30.9,30.31,West,270,2.2,-999.0,51,-99.99,,,0.00,Acu-Link.com,2013-04-26 13:30:00,
2013-04-26 09:45:00,49.1,30.3,30.31,East,90,2.7,-999.0,48,-99.99,,,0.00,Acu-Link.com,2013-04-26 13:45:00,
2013-04-26 10:00:00,50.2,28.6,30.31,SSE,157,1.1,-999.0,43,-99.99,,,0.00,Acu-Link.com,2013-04-26 14:00:00,
2013-04-26 10:15:00,51.4,30.2,30.30,West,270,2.2,-999.0,44,-99.99,,,0.00,Acu-Link.com,2013-04-26 14:15:00,
2013-04-26 10:30:00,52.3,28.7,30.31,SSE,157,2.2,-999.0,40,-99.99,,,0.00,Acu-Link.com,2013-04-26 14:30:00,
2013-04-26 10:45:00,53.4,28.4,30.30,ENE,67,7.8,-999.0,38,-99.99,,,0.00,Acu-Link.com,2013-04-26 14:45:00,
2013-04-26 11:00:00,52.7,30.8,30.30,West,270,4.2,-999.0,43,-99.99,,,0.00,Acu-Link.com,2013-04-26 15:00:00,
2013-04-26 11:15:00,53.8,28.1,30.30,NNE,22,3.7,-999.0,37,-99.99,,,0.00,Acu-Link.com,2013-04-26 15:15:00,
2013-04-26 11:31:00,54.1,25.6,30.29,West,270,2.2,-999.0,33,-99.99,,,0.00,Acu-Link.com,2013-04-26 15:31:00,
2013-04-26 11:46:00,55.0,27.9,30.29,ENE,67,3.7,-999.0,35,-99.99,,,0.00,Acu-Link.com,2013-04-26 15:46:00,
2013-04-26 12:01:00,55.8,27.1,30.28,NE,45,6.8,-999.0,33,-99.99,,,0.00,Acu-Link.com,2013-04-26 16:01:00,
2013-04-26 12:16:00,56.5,27.0,30.27,NE,45,4.2,-999.0,32,-99.99,,,0.00,Acu-Link.com,2013-04-26 16:16:00,
2013-04-26 12:31:00,55.9,24.9,30.27,ESE,112,2.7,-999.0,30,-99.99,,,0.00,Acu-Link.com,2013-04-26 16:31:00,
2013-04-26 12:46:00,56.8,25.7,30.26,NE,45,7.3,-999.0,30,-99.99,,,0.00,Acu-Link.com,2013-04-26 16:46:00,
2013-04-26 13:01:00,58.1,28.4,30.25,ENE,67,2.7,-999.0,32,-99.99,,,0.00,Acu-Link.com,2013-04-26 17:01:00,
2013-04-26 13:16:00,58.6,22.9,30.25,NE,45,6.8,-999.0,25,-99.99,,,0.00,Acu-Link.com,2013-04-26 17:16:00,
2013-04-26 13:31:00,58.3,26.2,30.24,ESE,112,5.3,-999.0,29,-99.99,,,0.00,Acu-Link.com,2013-04-26 17:31:00,
2013-04-26 13:47:00,58.3,25.3,30.24,ESE,112,4.7,-999.0,28,-99.99,,,0.00,Acu-Link.com,2013-04-26 17:47:00,
2013-04-26 14:02:00,58.8,24.0,30.23,WNW,292,6.3,-999.0,26,-99.99,,,0.00,Acu-Link.com,2013-04-26 18:02:00,
2013-04-26 14:17:00,59.0,25.9,30.23,East,90,2.2,-999.0,28,-99.99,,,0.00,Acu-Link.com,2013-04-26 18:17:00,
2013-04-26 14:32:00,60.3,26.2,30.22,SE,135,2.7,-999.0,27,-99.99,,,0.00,Acu-Link.com,2013-04-26 18:32:00,
2013-04-26 14:47:00,60.4,25.4,30.22,East,90,5.8,-999.0,26,-99.99,,,0.00,Acu-Link.com,2013-04-26 18:47:00,
2013-04-26 15:02:00,61.3,28.8,30.22,ENE,67,2.2,-999.0,29,-99.99,,,0.00,Acu-Link.com,2013-04-26 19:02:00,
2013-04-26 15:17:00,61.5,29.0,30.21,ESE,112,5.3,-999.0,29,-99.99,,,0.00,Acu-Link.com,2013-04-26 19:17:00,
2013-04-26 15:32:00,61.7,26.5,30.20,NE,45,5.8,-999.0,26,-99.99,,,0.00,Acu-Link.com,2013-04-26 19:32:00,
2013-04-26 15:47:00,62.4,26.1,30.20,West,270,6.3,-999.0,25,-99.99,,,0.00,Acu-Link.com,2013-04-26 19:47:00,
2013-04-26 16:03:00,61.7,23.5,30.19,ESE,112,4.2,-999.0,23,-99.99,,,0.00,Acu-Link.com,2013-04-26 20:03:00,
2013-04-26 16:18:00,63.7,25.2,30.19,SSE,157,2.2,-999.0,23,-99.99,,,0.00,Acu-Link.com,2013-04-26 20:18:00,
2013-04-26 16:33:00,63.5,26.1,30.18,ENE,67,3.7,-999.0,24,-99.99,,,0.00,Acu-Link.com,2013-04-26 20:33:00,
2013-04-26 16:48:00,63.3,23.8,30.19,ESE,112,5.8,-999.0,22,-99.99,,,0.00,Acu-Link.com,2013-04-26 20:48:00,
2013-04-26 17:03:00,63.7,24.2,30.18,NNE,22,4.7,-999.0,22,-99.99,,,0.00,Acu-Link.com,2013-04-26 21:03:00,
2013-04-26 17:18:00,66.0,23.8,30.18,East,90,8.3,-999.0,20,-99.99,,,0.00,Acu-Link.com,2013-04-26 21:18:00,
2013-04-26 17:33:00,68.4,25.8,30.18,SE,135,2.2,-999.0,20,-99.99,,,0.00,Acu-Link.com,2013-04-26 21:33:00,
2013-04-26 17:48:00,67.3,24.9,30.18,South,180,1.7,-999.0,20,-99.99,,,0.00,Acu-Link.com,2013-04-26 21:48:00,
2013-04-26 18:03:00,68.2,23.1,30.18,SE,135,2.2,-999.0,18,-99.99,,,0.00,Acu-Link.com,2013-04-26 22:03:00,
2013-04-26 18:19:00,67.8,24.0,30.18,West,270,3.7,-999.0,19,-99.99,,,0.00,Acu-Link.com,2013-04-26 22:19:00,
2013-04-26 18:34:00,69.1,27.5,30.17,West,270,1.7,-999.0,21,-99.99,,,0.00,Acu-Link.com,2013-04-26 22:34:00,
2013-04-26 18:49:00,68.2,24.4,30.18,West,270,4.2,-999.0,19,-99.99,,,0.00,Acu-Link.com,2013-04-26 22:49:00,
2013-04-26 19:04:00,62.4,24.1,30.18,NNE,22,1.1,-999.0,23,-99.99,,,0.00,Acu-Link.com,2013-04-26 23:04:00,
2013-04-26 19:19:00,59.4,25.4,30.19,NNE,22,0.0,-999.0,27,-99.99,,,0.00,Acu-Link.com,2013-04-26 23:19:00,
2013-04-26 19:34:00,56.7,24.8,30.19,NE,45,0.0,-999.0,29,-99.99,,,0.00,Acu-Link.com,2013-04-26 23:34:00,
2013-04-26 19:49:00,54.7,26.9,30.19,NNE,22,0.0,-999.0,34,-99.99,,,0.00,Acu-Link.com,2013-04-26 23:49:00,
2013-04-26 20:20:00,51.1,28.8,30.21,ENE,67,0.0,-999.0,42,-99.99,,,0.00,Acu-Link.com,2013-04-27 00:20:00,
2013-04-26 20:35:00,49.3,28.3,30.21,NNE,22,2.7,-999.0,44,-99.99,,,0.00,Acu-Link.com,2013-04-27 00:35:00,
2013-04-26 20:50:00,48.2,27.9,30.22,ESE,112,0.0,-999.0,45,-99.99,,,0.00,Acu-Link.com,2013-04-27 00:50:00,
2013-04-26 21:05:00,47.7,30.9,30.23,NE,45,0.0,-999.0,52,-99.99,,,0.00,Acu-Link.com,2013-04-27 01:05:00,
2013-04-26 21:20:00,46.2,30.5,30.23,ESE,112,0.0,-999.0,54,-99.99,,,0.00,Acu-Link.com,2013-04-27 01:20:00,
2013-04-26 21:35:00,45.3,30.1,30.23,NE,45,0.0,-999.0,55,-99.99,,,0.00,Acu-Link.com,2013-04-27 01:35:00,
2013-04-26 21:50:00,44.4,30.6,30.24,East,90,0.0,-999.0,58,-99.99,,,0.00,Acu-Link.com,2013-04-27 01:50:00,
2013-04-26 22:05:00,44.1,31.1,30.24,SE,135,0.0,-999.0,60,-99.99,,,0.00,Acu-Link.com,2013-04-27 02:05:00,
2013-04-26 22:21:00,42.8,31.1,30.25,NNE,22,0.0,-999.0,63,-99.99,,,0.00,Acu-Link.com,2013-04-27 02:21:00,
2013-04-26 22:36:00,42.3,29.4,30.25,NNE,22,0.0,-999.0,60,-99.99,,,0.00,Acu-Link.com,2013-04-27 02:36:00,
2013-04-26 22:51:00,41.7,30.4,30.25,NE,45,0.0,-999.0,64,-99.99,,,0.00,Acu-Link.com,2013-04-27 02:51:00,
2013-04-26 23:06:00,41.0,30.9,30.26,NNE,22,0.0,-999.0,67,-99.99,,,0.00,Acu-Link.com,2013-04-27 03:06:00,
2013-04-26 23:21:00,40.3,29.1,30.27,East,90,0.0,-999.0,64,-99.99,,,0.00,Acu-Link.com,2013-04-27 03:21:00,
2013-04-26 23:36:00,40.3,29.1,30.26,NE,45,0.0,-999.0,64,-99.99,,,0.00,Acu-Link.com,2013-04-27 03:36:00,
2013-04-26 23:51:00,39.7,30.0,30.27,NE,45,0.0,-999.0,68,-99.99,,,0.00,Acu-Link.com,2013-04-27 03:51:00,